Flag for Guatemala Weather past 2 weeks in Escuintla, Guatemala

Now
68 °F

Clear.


Feels Like: 68 °F
Forecast: 71 / 94 °F
Wind: 14 mph from North

Location: Guatemala Aeropuertola Aurora

Current Time: Aug 29, 2015 at 9:49:35 PM

Latest Report: Aug 29, 2015 at 9:00 PM


Visibility: 10 mi

Pressure: 30.27 "Hg

Humidity: 78%

Dew point: 61 °F

Location of EscuintlaLocation

Historic Weather in Escuintla — Graph

°F

Escuintla temperature yesterday

Maximum temperature yesterday: 79 °F (at 1:00 PM)
Minimum temperature yesterday: 64 °F (at 2:00 AM)
Average temperature yesterday: 69 °F

Past Weeks' High & Low Weather Summary

 TemperatureHumidityPressure
High82 °F (Aug 21, 3:00 PM)100% (Aug 16, 1:00 AM)30.36 "Hg (Aug 16, 1:00 AM)
Low59 °F (Aug 24, 6:00 AM)30% (Aug 22, 4:00 PM)30.15 "Hg (Aug 28, 4:00 PM)
Average70 °F77%30.27 "Hg
* Reported Aug 14 8:00 PM — Aug 29 8:00 PM, Escuintla, Weather by CustomWeather, © 2015

Note: Actual official high and low records may vary slightly from our data, if they occured in-between our weather recording intervals... More about our weather records

Advertising

Escuintla weather history for previous 24 hours

 ConditionsComfort  
Time TempWeatherWind HumidityBarometerVisibility
8:00 PM
Sat, Aug 29
70 °FPassing clouds.14 mph69%30.24 "HgN/A
7:00 PM70 °FClear.12 mph73%30.21 "Hg10 mi
6:00 PM72 °FMild.14 mph65%30.21 "HgN/A
5:00 PM75 °FScattered clouds.21 mph57%30.18 "HgN/A
4:00 PM79 °FPassing clouds.18 mph51%30.15 "HgN/A
3:00 PM79 °FScattered clouds.14 mph54%30.18 "HgN/A
2:00 PM79 °FScattered clouds.16 mph58%30.21 "HgN/A
1:00 PM77 °FScattered clouds.14 mph61%30.24 "HgN/A
12:00 PM75 °FPartly sunny.16 mph65%30.27 "HgN/A
11:00 AM75 °FScattered clouds.16 mph65%30.27 "HgN/A
10:00 AM72 °FScattered clouds.14 mph73%30.27 "HgN/A
9:00 AM70 °FScattered clouds.16 mph73%30.30 "HgN/A
8:00 AM66 °FScattered clouds.14 mph88%30.30 "HgN/A
7:00 AM64 °FScattered clouds.12 mph94%30.27 "HgN/A
6:00 AM64 °FScattered clouds.12 mph94%30.27 "HgN/A
5:00 AM64 °FPassing clouds.12 mph94%30.24 "HgN/A
4:00 AM64 °FPassing clouds.14 mph94%30.24 "HgN/A
3:00 AM64 °FPassing clouds.14 mph94%30.24 "HgN/A
2:00 AM66 °FOvercast.14 mph88%30.24 "HgN/A
1:00 AM66 °FPassing clouds.12 mph88%30.27 "HgN/A
12:00 AM66 °FPassing clouds.7 mph94%30.30 "HgN/A
11:00 PM
Fri, Aug 28
66 °FPassing clouds.No wind94%30.30 "HgN/A
10:00 PM66 °FPassing clouds.No wind94%30.30 "Hg5 mi
9:00 PM66 °FPassing clouds.No wind94%30.27 "Hg5 mi
Weather by CustomWeather, © 2015

See weather overviewHow to use our weather pages